Location: Kaltenbach
(49.2000°N, 7.7500°E)
Time: 21:13:15
(UTC+00:00)

BREEZE-M DEB (TANK) - Pass Details

Date: 24 January 2020
Orbit: 322 x 14857 km, 49.5° (Epoch: 16 February)

Event Time Altitude Azimuth Distance (km) Brightness Sun altitude
Rises 18:32:03 0° 249° (WSW) 2,092 7.3 -22.7°
Reaches altitude 10° 18:33:40 10° 246° (WSW) 1,245 5.8 -22.9°
Enters shadow 18:34:48 28° 239° (WSW) 702 4.1 -23.1°
